timestamp,wind_dir_avg,wind_spd_max_dir,wind_spd_avg,wind_spd_gust,battery_voltage,lat,long
2018-12-07 00:00:00+00:00,60.0,56.0,19.07,22.52,,47.59359,-54.27349
2018-12-07 00:10:00+00:00,59.0,55.0,19.0,22.48,,47.59359,-54.27349
2018-12-07 00:20:00+00:00,65.0,69.0,19.4,22.28,,47.59359,-54.27349
2018-12-07 00:30:00+00:00,58.0,58.0,20.31,23.06,,47.59359,-54.27349
2018-12-07 00:40:00+00:00,62.0,58.0,18.35,20.82,,47.59359,-54.27349
2018-12-07 00:50:00+00:00,56.0,57.0,16.05,18.96,,47.59359,-54.27349
2018-12-07 01:00:00+00:00,41.0,47.0,14.88,18.05,,47.59359,-54.27349
2018-12-07 01:10:00+00:00,44.0,52.0,16.28,20.35,,47.59359,-54.27349
2018-12-07 01:20:00+00:00,50.0,49.0,17.4,19.75,,47.59359,-54.27349
2018-12-07 01:30:00+00:00,47.0,50.0,17.19,19.85,,47.59359,-54.27349
2018-12-07 01:40:00+00:00,46.0,42.0,17.23,19.83,,47.59359,-54.27349
2018-12-07 01:50:00+00:00,38.0,47.0,13.69,17.18,,47.59359,-54.27349
2018-12-07 02:00:00+00:00,40.0,42.0,16.44,20.39,,47.59359,-54.27349
2018-12-07 02:10:00+00:00,36.0,51.0,14.86,17.95,,47.59359,-54.27349
2018-12-07 02:20:00+00:00,41.0,48.0,16.87,19.55,,47.59359,-54.27349
2018-12-07 02:30:00+00:00,39.0,45.0,16.78,21.75,,47.59359,-54.27349
2018-12-07 02:40:00+00:00,42.0,44.0,17.48,20.36,,47.59359,-54.27349
2018-12-07 02:50:00+00:00,32.0,44.0,14.96,18.18,,47.59359,-54.27349
2018-12-07 03:00:00+00:00,22.0,18.0,11.16,13.51,,47.59359,-54.27349
2018-12-07 03:10:00+00:00,26.0,35.0,14.36,16.49,,47.59359,-54.27349
2018-12-07 03:20:00+00:00,21.0,16.0,11.8,15.08,,47.59359,-54.27349
2018-12-07 03:30:00+00:00,26.0,29.0,12.59,14.61,,47.59359,-54.27349
2018-12-07 03:40:00+00:00,10.0,17.0,13.07,14.43,,47.59359,-54.27349
2018-12-07 03:50:00+00:00,18.0,20.0,12.36,13.87,,47.59359,-54.27349
2018-12-07 04:00:00+00:00,17.0,16.0,13.3,15.2,,47.59359,-54.27349
2018-12-07 04:10:00+00:00,15.0,17.0,12.82,14.76,,47.59359,-54.27349
2018-12-07 04:20:00+00:00,18.0,22.0,13.69,16.23,,47.59359,-54.27349
2018-12-07 04:30:00+00:00,12.0,16.0,11.96,13.29,,47.59359,-54.27349
2018-12-07 04:40:00+00:00,10.0,5.0,12.98,15.3,,47.59359,-54.27349
2018-12-07 04:50:00+00:00,3.0,359.0,13.58,15.39,,47.59359,-54.27349
2018-12-07 05:00:00+00:00,3.0,13.0,11.39,13.27,,47.59359,-54.27349
2018-12-07 05:10:00+00:00,1.0,359.0,12.42,14.69,,47.59359,-54.27349
2018-12-07 05:20:00+00:00,3.0,359.0,11.17,13.4,,47.59359,-54.27349
2018-12-07 05:30:00+00:00,2.0,356.0,11.3,13.27,,47.59359,-54.27349
2018-12-07 05:40:00+00:00,2.0,358.0,11.39,13.85,,47.59359,-54.27349
2018-12-07 05:50:00+00:00,358.0,358.0,12.67,14.04,,47.59359,-54.27349
2018-12-07 06:00:00+00:00,356.0,0.0,12.16,13.85,,47.59359,-54.27349
2018-12-07 06:10:00+00:00,4.0,10.0,12.39,13.76,,47.59359,-54.27349
2018-12-07 06:20:00+00:00,1.0,3.0,11.1,14.03,,47.59359,-54.27349
2018-12-07 06:30:00+00:00,353.0,345.0,11.56,14.26,,47.59359,-54.27349
2018-12-07 06:40:00+00:00,337.0,347.0,10.16,13.11,,47.59359,-54.27349
2018-12-07 06:50:00+00:00,332.0,333.0,9.12,10.48,,47.59359,-54.27349
2018-12-07 07:00:00+00:00,325.0,324.0,10.0,11.59,,47.59359,-54.27349
2018-12-07 07:10:00+00:00,324.0,333.0,10.4,12.41,,47.59359,-54.27349
2018-12-07 07:20:00+00:00,327.0,321.0,9.94,12.28,,47.59359,-54.27349
2018-12-07 07:30:00+00:00,323.0,347.0,9.48,11.9,,47.59359,-54.27349
2018-12-07 07:40:00+00:00,333.0,342.0,8.18,9.74,,47.59359,-54.27349
2018-12-07 07:50:00+00:00,322.0,324.0,9.84,11.06,,47.59359,-54.27349
2018-12-07 08:00:00+00:00,330.0,322.0,10.46,12.73,,47.59359,-54.27349
2018-12-07 08:10:00+00:00,318.0,322.0,9.4,12.7,,47.59359,-54.27349
2018-12-07 08:20:00+00:00,319.0,317.0,8.85,11.17,,47.59359,-54.27349
2018-12-07 08:30:00+00:00,319.0,322.0,9.92,12.95,,47.59359,-54.27349
2018-12-07 08:40:00+00:00,329.0,331.0,10.87,12.84,,47.59359,-54.27349
2018-12-07 08:50:00+00:00,324.0,331.0,10.39,11.68,,47.59359,-54.27349
2018-12-07 09:00:00+00:00,323.0,329.0,8.77,11.17,,47.59359,-54.27349
2018-12-07 09:10:00+00:00,325.0,317.0,8.83,10.54,,47.59359,-54.27349
2018-12-07 09:20:00+00:00,320.0,319.0,9.44,12.13,,47.59359,-54.27349
2018-12-07 09:30:00+00:00,325.0,309.0,9.51,11.29,,47.59359,-54.27349
2018-12-07 09:40:00+00:00,331.0,331.0,9.62,10.94,,47.59359,-54.27349
2018-12-07 09:50:00+00:00,327.0,325.0,8.77,9.63,,47.59359,-54.27349
2018-12-07 10:00:00+00:00,334.0,337.0,8.82,10.95,,47.59359,-54.27349
2018-12-07 10:10:00+00:00,327.0,329.0,9.16,10.45,,47.59359,-54.27349
2018-12-07 10:20:00+00:00,327.0,330.0,7.35,8.63,,47.59359,-54.27349
2018-12-07 10:30:00+00:00,345.0,346.0,8.07,9.81,,47.59359,-54.27349
2018-12-07 10:40:00+00:00,343.0,343.0,7.68,8.46,,47.59359,-54.27349
2018-12-07 10:50:00+00:00,339.0,341.0,7.67,9.45,,47.59359,-54.27349
2018-12-07 11:00:00+00:00,340.0,344.0,7.61,8.86,,47.59359,-54.27349
2018-12-07 11:10:00+00:00,334.0,336.0,8.03,8.95,,47.59359,-54.27349
2018-12-07 11:20:00+00:00,316.0,318.0,6.19,7.38,,47.59359,-54.27349
2018-12-07 11:30:00+00:00,311.0,326.0,7.1,8.44,,47.59359,-54.27349
2018-12-07 11:40:00+00:00,302.0,305.0,7.41,8.55,,47.59359,-54.27349
2018-12-07 11:50:00+00:00,293.0,289.0,7.99,9.12,,47.59359,-54.27349
2018-12-07 12:00:00+00:00,284.0,289.0,8.17,9.23,,47.59359,-54.27349
2018-12-07 12:10:00+00:00,287.0,274.0,7.33,9.33,,47.59359,-54.27349
2018-12-07 12:20:00+00:00,285.0,283.0,8.17,10.74,,47.59359,-54.27349
2018-12-07 12:30:00+00:00,293.0,302.0,7.82,9.18,,47.59359,-54.27349
2018-12-07 12:40:00+00:00,301.0,311.0,8.09,8.93,,47.59359,-54.27349
2018-12-07 12:50:00+00:00,293.0,291.0,8.11,9.32,,47.59359,-54.27349
2018-12-07 13:00:00+00:00,294.0,297.0,9.09,10.69,,47.59359,-54.27349
2018-12-07 13:10:00+00:00,301.0,301.0,8.64,10.14,,47.59359,-54.27349
2018-12-07 13:20:00+00:00,303.0,308.0,7.34,8.89,,47.59359,-54.27349
2018-12-07 13:30:00+00:00,301.0,304.0,7.58,8.67,,47.59359,-54.27349
2018-12-07 13:40:00+00:00,308.0,301.0,7.24,8.69,,47.59359,-54.27349
2018-12-07 13:50:00+00:00,306.0,302.0,6.87,8.47,,47.59359,-54.27349
2018-12-07 14:00:00+00:00,299.0,294.0,7.11,8.47,,47.59359,-54.27349
2018-12-07 14:10:00+00:00,314.0,319.0,6.27,7.09,,47.59359,-54.27349
2018-12-07 14:20:00+00:00,293.0,302.0,6.57,7.96,,47.59359,-54.27349
2018-12-07 14:30:00+00:00,302.0,303.0,5.58,6.52,,47.59359,-54.27349
2018-12-07 14:40:00+00:00,301.0,286.0,7.69,9.02,,47.59359,-54.27349
2018-12-07 14:50:00+00:00,292.0,288.0,7.81,8.9,,47.59359,-54.27349
2018-12-07 15:00:00+00:00,291.0,291.0,6.28,7.22,,47.59359,-54.27349
2018-12-07 15:10:00+00:00,294.0,300.0,6.56,7.83,,47.59359,-54.27349
2018-12-07 15:20:00+00:00,298.0,295.0,6.22,8.03,,47.59359,-54.27349
2018-12-07 15:30:00+00:00,295.0,291.0,6.22,7.06,,47.59359,-54.27349
2018-12-07 15:40:00+00:00,288.0,291.0,6.35,6.98,,47.59359,-54.27349
2018-12-07 15:50:00+00:00,291.0,292.0,6.71,7.88,,47.59359,-54.27349
2018-12-07 16:00:00+00:00,300.0,302.0,6.91,7.94,,47.59359,-54.27349
2018-12-07 16:10:00+00:00,290.0,287.0,6.92,8.37,,47.59359,-54.27349
2018-12-07 16:20:00+00:00,277.0,278.0,6.06,6.71,,47.59359,-54.27349
2018-12-07 16:30:00+00:00,282.0,272.0,5.91,7.41,,47.59359,-54.27349
2018-12-07 16:40:00+00:00,280.0,279.0,6.5,7.69,,47.59359,-54.27349
2018-12-07 16:50:00+00:00,283.0,291.0,7.74,9.67,,47.59359,-54.27349
2018-12-07 17:00:00+00:00,287.0,286.0,8.69,9.87,,47.59359,-54.27349
2018-12-07 17:10:00+00:00,279.0,277.0,7.68,8.67,,47.59359,-54.27349
2018-12-07 17:20:00+00:00,287.0,283.0,7.1,8.19,,47.59359,-54.27349
2018-12-07 17:30:00+00:00,280.0,284.0,6.19,7.26,,47.59359,-54.27349
2018-12-07 17:40:00+00:00,289.0,288.0,6.16,7.13,,47.59359,-54.27349
2018-12-07 17:50:00+00:00,294.0,295.0,6.58,8.05,,47.59359,-54.27349
2018-12-07 18:00:00+00:00,298.0,302.0,6.24,7.61,,47.59359,-54.27349
2018-12-07 18:10:00+00:00,286.0,299.0,5.86,7.14,,47.59359,-54.27349
2018-12-07 18:20:00+00:00,274.0,270.0,6.06,7.1,,47.59359,-54.27349
2018-12-07 18:30:00+00:00,287.0,285.0,4.82,5.56,,47.59359,-54.27349
2018-12-07 18:40:00+00:00,284.0,288.0,6.98,8.83,,47.59359,-54.27349
2018-12-07 18:50:00+00:00,286.0,290.0,8.25,9.12,,47.59359,-54.27349
2018-12-07 19:00:00+00:00,274.0,269.0,7.17,8.27,,47.59359,-54.27349
2018-12-07 19:10:00+00:00,274.0,274.0,8.27,9.28,,47.59359,-54.27349
2018-12-07 19:20:00+00:00,283.0,289.0,9.01,9.72,,47.59359,-54.27349
2018-12-07 19:30:00+00:00,280.0,284.0,7.97,8.87,,47.59359,-54.27349
2018-12-07 19:40:00+00:00,275.0,275.0,7.16,8.1,,47.59359,-54.27349
2018-12-07 19:50:00+00:00,269.0,272.0,6.72,7.48,,47.59359,-54.27349
2018-12-07 20:00:00+00:00,263.0,264.0,6.8,7.26,,47.59359,-54.27349
2018-12-07 20:10:00+00:00,265.0,262.0,5.55,6.3,,47.59359,-54.27349
2018-12-07 20:20:00+00:00,265.0,268.0,6.38,6.86,,47.59359,-54.27349
2018-12-07 20:30:00+00:00,264.0,269.0,5.25,5.96,,47.59359,-54.27349
2018-12-07 20:40:00+00:00,268.0,268.0,5.85,6.59,,47.59359,-54.27349
2018-12-07 20:50:00+00:00,256.0,256.0,6.06,7.18,,47.59359,-54.27349
2018-12-07 21:00:00+00:00,263.0,263.0,5.86,6.59,,47.59359,-54.27349
2018-12-07 21:10:00+00:00,273.0,270.0,5.35,6.41,,47.59359,-54.27349
2018-12-07 21:20:00+00:00,278.0,274.0,5.4,6.26,,47.59359,-54.27349
2018-12-07 21:30:00+00:00,277.0,276.0,6.28,7.77,,47.59359,-54.27349
2018-12-07 21:40:00+00:00,263.0,263.0,6.59,7.3,,47.59359,-54.27349
2018-12-07 21:50:00+00:00,267.0,267.0,7.51,8.35,,47.59359,-54.27349
2018-12-07 22:00:00+00:00,265.0,268.0,6.49,7.2,,47.59359,-54.27349
2018-12-07 22:10:00+00:00,267.0,266.0,6.37,7.13,,47.59359,-54.27349
2018-12-07 22:20:00+00:00,269.0,268.0,7.2,7.8,,47.59359,-54.27349
2018-12-07 22:30:00+00:00,261.0,265.0,7.02,8.23,,47.59359,-54.27349
2018-12-07 22:40:00+00:00,262.0,263.0,7.55,8.49,,47.59359,-54.27349
2018-12-07 22:50:00+00:00,269.0,267.0,6.95,7.83,,47.59359,-54.27349
2018-12-07 23:00:00+00:00,266.0,266.0,6.16,6.96,,47.59359,-54.27349
2018-12-07 23:10:00+00:00,266.0,266.0,6.34,7.12,,47.59359,-54.27349
2018-12-07 23:20:00+00:00,268.0,269.0,6.13,6.82,,47.59359,-54.27349
2018-12-07 23:30:00+00:00,270.0,268.0,6.14,6.91,,47.59359,-54.27349
2018-12-07 23:40:00+00:00,276.0,278.0,5.53,6.09,,47.59359,-54.27349
2018-12-07 23:50:00+00:00,272.0,270.0,6.48,7.25,,47.59359,-54.27349
